{"data":{"norad_id":53832,"intl_designator":"2022-114Q","name":"STARLINK-4747","alt_names":[],"object_type":"PAYLOAD","status":"ACTIVE","operator":null,"country":"US","launch_date":"2022-09-19","launch_site_code":"AFETR","launch_vehicle":null,"mission":null,"orbit_class":"UNKNOWN","rcs_meters":null,"size_class":null,"mass_kg":null,"dimensions":null,"purposes":["comms"],"wikipedia_slug":null,"has_3d_model":false,"image_url":null,"decayed_at":null,"tle_current":{"epoch":"2026-05-25T04:31:14.272032Z","epoch_age_seconds":58876,"freshness":"FRESH","line1":"1 53832U 22114Q   26145.18835963  .00000007  00000+0  18514-4 0  9991","line2":"2 53832  53.2145 320.4547 0001241  86.5667 273.5467 15.08836487204385","mean_motion":15.08836487,"eccentricity":0.0001241,"inclination_deg":53.2145,"raan_deg":320.4547,"arg_perigee_deg":86.5667,"mean_anomaly_deg":273.5467,"bstar":1.8514e-5,"rev_number":20438,"period_min":95.437776883507,"perigee_km":538.8956165316999,"apogee_km":540.61263710938,"semimajor_km":6917.8911268205,"source":"CELESTRAK","updated_at":"2026-05-25T13:38:17.572081Z"}}}